Dewpoint
9 10 10 10 9 9 9 9 9 7 7 7 3 -3 -4 -5 -6 -6 -7 -6 -6 -6 -6 -7 -7 -7 -7 -6 -6 -6 -5 -2 -1 -2 -2 -3 -2 -2 -1 -1 -2 -3 -5
8 9 9 9 10 9 9 9 9 9 9 8 8 4 2 -2 -3 -5 -6 -6 -5 -5 -5 -5 -5 -5 -6 -7 -7 -8 -7 -5 -3 -3 -3 -3 -3 -2 -2 -2 -2 -3 -4
8 8 8 8 9 9 10 9 9 9 9 9 7 8 7 5 1 -2 -4 -5 -5 -4 -3 -3 -2 -3 -4 -5 -6 -7 -8 -5 -6 -6 -5 -3 -3 -2 -3 -3 -2 -2 -4
8 8 7 8 8 9 9 10 9 10 9 8 6 6 4 6 7 5 2 -1 -1 -2 -2 -2 -1 -1 -1 -1 -4 -6 -7 -5 -4 -5 -5 -3 -2 -2 -2 -3 -3 -2 -3
8 7 7 7 8 8 8 9 9 9 9 9 9 9 8 6 8 8 7 6 5 2 1 0 1 0 1 0 -1 -3 -5 -5 -3 -4 -3 -2 -1 -1 -1 -2 -2 -3 -4
7 7 8 7 7 8 8 8 9 8 8 8 8 7 7 6 6 7 7 7 7 6 5 4 3 4 4 4 4 -0 -2 -4 -4 -4 -4 -4 -4 -3 -2 -3 -3 -3 -4
7 7 7 8 8 8 7 7 8 7 8 8 8 7 8 7 4 7 7 7 7 7 7 6 5 5 5 4 5 3 2 -0 -2 -4 -5 -5 -4 -5 -5 -3 -4 -4 -5
7 6 7 7 7 7 7 7 7 7 8 8 8 7 7 7 4 4 7 6 7 6 6 6 6 6 6 5 5 5 4 2 1 -0 -1 -2 -3 -4 -4 -5 -6 -5 -4
5 6 6 6 6 8 8 7 8 8 8 8 8 8 8 8 7 5 8 8 7 4 6 6 6 6 6 6 6 5 5 4 3 2 1 -0 -1 -1 -2 -3 -3 -3 -3
3 5 5 5 5 5 5 6 8 8 8 8 8 8 7 8 8 8 7 7 6 6 6 6 6 6 6 5 4 4 4 4 3 3 3 2 1 -0 -2 -2 -3 -3 -3
4 5 5 5 4 4 4 5 5 7 7 7 7 7 6 6 7 7 7 6 6 6 7 6 6 6 5 5 4 4 4 4 3 3 2 2 1 1 0 -0 -1 -1 -0
3 3 4 4 4 3 3 4 4 5 6 6 6 6 6 6 6 6 6 5 5 6 6 5 6 5 4 4 3 3 3 3 3 3 2 2 1 1 1 0 0 -0 -0
2 2 2 3 3 4 4 4 4 5 5 5 5 5 5 5 5 5 5 5 4 4 4 4 4 4 4 4 3 2 2 2 2 2 2 1 1 1 0 -0 -0 -0 -1
0 1 1 1 1 2 2 2 2 2 2 2 2 2 3 3 4 4 4 4 2 2 3 4 4 3 3 3 3 2 2 2 1 1 1 1 0 -1 -1 -0 -1 -1 -1
-2 -2 -2 -2 -2 -1 -1 -1 -0 -0 -0 0 0 0 1 2 2 3 3 2 2 2 2 2 2 2 2 2 1 1 1 1 1 1 1 0 -0 -1 -1 -1 -1 -1 -1
-2 -2 -2 -2 -2 -3 -3 -3 -3 -3 -3 -2 -2 -1 -0 0 1 1 1 1 1 1 1 1 2 1 1 1 1 1 1 1 1 0 -0 -0 -1 -1 -1 -1 -1 -1 -2
-3 -3 -3 -2 -2 -2 -2 -2 -2 -2 -3 -3 -3 -3 -3 -3 -0 0 1 1 0 0 0 0 0 0 0 0 0 0 0 0 -0 -1 -1 -2 -1 -2 -2 -2 -2 -2 -2
-3 -3 -3 -3 -3 -3 -3 -3 -3 -3 -3 -3 -3 -3 -3 -3 -3 -1 -1 -1 -1 -1 -0 -1 -1 -1 -1 -1 -1 -1 -1 -1 -2 -2 -2 -2 -2 -2 -2 -2 -2 -3 -6
-9 -8 -7 -6 -6 -5 -5 -6 -6 -6 -6 -6 -5 -5 -5 -4 -3 -2 -2 -2 -2 -2 -2 -2 -2 -2 -2 -2 -2 -2 -2 -2 -2 -2 -2 -2 -2 -2 -3 -3 -3 -3 -5
-19 -17 -16 -15 -15 -14 -14 -14 -14 -14 -13 -13 -12 -12 -10 -8 -7 -5 -4 -3 -3 -3 -3 -3 -3 -3 -3 -2 -3 -3 -3 -2 -2 -3 -3 -3 -3 -3 -3 -3 -3 -3 -4
-22 -22 -22 -24 -25 -25 -25 -24 -23 -22 -20 -19 -17 -16 -16 -16 -16 -15 -12 -9 -7 -6 -5 -5 -4 -4 -4 -4 -4 -3 -3 -3 -3 -3 -3 -4 -4 -4 -4 -4 -4 -4 -4
-20 -20 -20 -21 -21 -21 -21 -21 -21 -21 -21 -22 -22 -22 -22 -22 -21 -19 -17 -15 -14 -13 -11 -9 -7 -6 -6 -5 -5 -5 -4 -4 -5 -4 -5 -5 -5 -5 -5 -5 -5 -5 -5
-20 -20 -20 -20 -20 -20 -20 -20 -21 -21 -21 -21 -20 -20 -19 -19 -19 -20 -21 -20 -18 -16 -14 -13 -11 -9 -7 -6 -7 -6 -6 -6 -6 -6 -5 -5 -5 -6 -6 -5 -5 -5 -6
-20 -20 -20 -20 -19 -19 -19 -19 -19 -19 -19 -19 -20 -20 -20 -20 -19 -19 -18 -18 -19 -19 -18 -16 -15 -14 -12 -10 -8 -7 -7 -7 -7 -7 -6 -6 -6 -6 -6 -6 -6 -6 -6
-19 -19 -19 -19 -18 -18 -18 -18 -18 -18 -18 -18 -18 -17 -17 -17 -18 -18 -19 -19 -19 -19 -17 -17 -18 -17 -15 -13 -11 -9 -8 -8 -8 -8 -7 -7 -7 -7 -7 -7 -7 -7 -7
-17 -17 -17 -17 -17 -17 -17 -17 -17 -17 -17 -17 -16 -16 -15 -15 -15 -15 -15 -15 -15 -16 -17 -17 -17 -17 -17 -16 -15 -13 -11 -10 -8 -8 -8 -8 -8 -8 -7 -7 -7 -7 -7
Wind_Speed
26 25 27 30 31 33 34 32 28 25 25 26 25 29 32 34 34 34 35 34 33 33 33 34 32 30 29 28 28 28 28 26 25 21 23 20 22 20 23 23 21 19 18
23 25 26 27 28 33 36 34 29 30 28 24 25 25 27 30 34 37 37 37 37 37 35 35 35 34 33 32 31 31 30 30 28 28 25 23 24 22 21 23 22 21 19
14 22 23 24 25 27 29 35 32 30 31 27 15 22 29 27 31 36 38 38 39 39 37 38 37 38 37 37 36 34 32 33 32 31 30 27 25 24 24 25 25 24 23
15 16 23 23 26 26 26 28 33 36 31 30 21 20 22 23 29 35 36 38 40 39 40 39 40 40 39 39 38 35 34 34 35 35 35 32 29 29 27 27 29 29 25
11 13 15 20 22 21 22 19 18 21 28 28 29 26 25 25 33 27 36 39 39 40 40 41 41 41 38 38 38 38 36 35 37 37 38 37 35 34 34 31 30 29 27
9 12 14 18 18 20 19 21 22 20 23 26 29 27 21 21 17 20 30 41 43 42 46 46 44 41 41 38 37 39 36 37 39 39 40 41 39 37 34 32 32 33 31
8 9 12 15 17 18 19 18 18 18 20 22 27 26 29 22 16 18 14 19 26 26 37 47 47 47 44 42 40 38 37 37 37 36 38 39 40 37 34 33 34 34 32
11 9 9 11 12 12 16 18 18 17 19 18 21 23 28 29 22 14 17 16 19 18 28 36 39 44 50 49 43 40 39 39 36 36 36 32 29 30 30 28 28 31 30
13 12 8 11 14 9 18 13 14 16 17 19 20 20 27 28 33 27 25 28 23 9 15 25 28 32 35 38 40 40 38 38 36 35 33 29 27 25 25 27 30 29 30
9 8 9 9 9 11 13 12 12 13 12 17 18 20 23 23 23 24 24 29 22 27 31 26 25 26 27 31 35 38 39 37 35 35 34 29 26 25 24 24 24 27 26
9 8 9 9 6 7 9 10 10 11 12 13 12 13 15 17 18 19 20 25 24 22 27 25 23 23 21 25 25 28 27 33 36 37 33 29 27 26 27 26 24 26 25
10 9 7 5 5 5 5 8 9 8 8 8 10 11 13 13 16 17 19 20 22 21 25 24 19 16 15 17 18 23 26 30 33 34 33 32 32 33 31 28 27 24 21
13 13 11 10 10 9 7 8 9 9 7 6 5 5 5 7 10 13 12 16 17 17 17 16 14 15 15 12 13 18 19 26 28 31 35 36 34 28 26 30 35 32 23
19 18 16 14 14 13 14 13 12 12 11 10 8 7 5 3 1 1 4 8 10 12 12 15 17 15 14 12 13 15 15 22 25 27 31 30 29 30 30 31 26 23 21
23 22 21 19 17 17 17 16 13 12 8 7 7 6 5 5 4 4 4 4 5 5 5 7 8 8 9 11 15 17 19 22 23 25 30 31 33 32 26 25 22 23 25
21 21 18 18 18 17 17 18 17 14 11 9 8 6 5 5 4 6 8 6 6 5 4 4 3 3 5 10 15 19 20 21 24 22 24 27 24 24 24 24 23 23 24
17 16 16 15 15 14 12 11 11 11 11 11 10 9 9 7 5 5 4 6 6 5 5 4 3 1 1 6 10 17 19 18 18 20 19 17 19 20 21 21 21 24 26
18 17 16 15 13 12 11 11 11 10 11 12 11 10 9 8 8 6 6 6 6 5 5 4 4 2 2 4 8 12 15 14 13 15 15 16 16 18 20 21 24 25 27
22 21 19 18 18 16 14 14 14 13 14 13 12 12 13 11 8 6 6 5 4 3 3 3 3 5 5 6 5 6 7 8 11 14 14 16 18 20 21 25 25 26 26
18 17 16 16 15 15 15 15 14 15 14 14 13 14 13 8 9 10 8 6 4 3 2 1 2 4 5 7 8 8 8 9 11 12 15 15 16 19 24 26 27 28 28
14 12 11 10 10 10 10 10 10 9 9 10 10 11 11 11 11 10 9 7 6 4 3 3 3 5 6 7 7 7 8 9 10 12 13 14 16 19 21 23 25 27 28
11 10 9 9 8 7 7 7 6 6 6 6 7 7 8 9 9 9 9 8 8 7 6 5 5 5 5 6 7 8 10 11 12 14 14 15 16 16 17 19 20 22 23
10 9 8 8 7 6 6 6 6 6 6 7 7 7 7 8 9 9 10 10 9 9 9 9 8 7 7 6 7 7 8 9 10 11 12 15 15 16 17 18 18 19 21
9 9 8 8 7 7 7 6 7 7 7 8 8 8 9 9 10 11 12 12 11 11 11 11 11 12 11 10 9 10 11 10 10 11 12 13 14 15 16 17 18 19 20
9 9 9 9 8 8 8 8 9 10 10 10 9 10 10 11 11 11 13 12 12 12 12 13 14 14 13 13 13 13 12 12 14 15 15 15 16 16 16 17 17 18 18
10 10 9 10 10 10 10 11 11 10 10 10 10 11 11 11 11 11 12 12 11 10 11 12 13 15 16 17 17 17 16 17 17 16 16 16 16 16 17 16 16 18 18
Wind_Direction
220 235 232 223 212 222 227 227 226 227 228 230 231 231 230 230 229 229 231 231 230 230 230 233 236 235 235 233 232 234 237 238 239 245 241 241 242 243 239 235 229 231 233
224 227 233 239 235 223 213 221 225 231 232 238 239 236 240 239 237 235 236 236 235 235 233 234 236 236 237 238 236 235 235 236 237 241 245 238 236 239 239 239 234 230 233
228 228 221 232 237 236 229 224 221 232 239 241 235 242 236 241 246 243 242 242 242 241 241 240 239 236 236 238 236 234 233 232 234 238 242 242 237 235 231 230 231 229 229
219 223 228 223 229 232 232 231 227 231 227 235 238 231 266 265 261 246 245 244 246 246 246 245 246 243 240 240 237 237 234 231 231 234 239 241 237 231 230 231 225 226 227
231 235 228 235 232 225 229 232 230 230 232 237 240 240 239 250 247 258 255 249 242 243 247 248 249 249 248 248 244 242 236 232 230 231 234 236 234 226 226 226 226 231 225
229 238 234 230 241 242 242 233 231 240 239 244 240 239 233 243 253 260 256 256 253 248 242 243 244 243 250 245 246 248 246 241 233 231 231 235 237 237 233 230 226 220 223
225 229 237 234 238 240 241 236 234 232 243 246 240 236 237 239 255 237 241 266 256 263 261 252 245 245 244 242 242 244 245 246 246 248 242 239 238 240 240 232 229 230 232
201 202 216 222 230 237 240 240 238 237 237 239 242 242 245 242 247 251 248 255 259 289 268 262 256 251 250 244 238 240 240 239 240 243 244 249 253 250 250 250 246 234 229
216 199 205 216 221 226 221 225 240 244 243 253 246 247 244 249 241 249 258 252 249 232 248 243 247 252 250 247 243 242 243 243 238 240 246 246 244 242 239 234 228 228 226
172 170 194 208 222 225 230 235 233 237 245 246 256 261 256 251 241 242 249 248 244 236 240 243 252 251 253 256 245 242 243 245 238 234 232 234 233 230 229 225 222 224 228
129 139 169 170 186 209 212 222 235 236 235 238 243 241 244 237 233 238 240 242 235 215 233 237 251 255 254 254 252 248 248 249 243 233 234 231 230 228 226 221 230 233 233
124 123 121 145 160 174 203 206 219 236 228 221 222 225 238 240 243 239 234 238 240 229 238 245 243 244 245 244 243 248 244 246 239 230 226 226 227 228 219 226 233 241 238
137 130 128 133 136 144 155 154 163 167 183 202 202 209 233 255 256 254 247 236 232 226 219 219 226 225 224 217 214 223 233 241 237 230 229 232 228 226 219 227 241 242 231
122 119 118 117 115 114 117 121 127 129 132 133 133 140 143 143 80 358 235 224 209 214 202 216 226 223 211 197 202 217 221 230 234 229 231 227 229 224 236 255 231 230 234
116 114 112 110 110 109 105 97 95 93 99 113 111 111 118 132 126 128 119 148 167 198 190 190 202 215 206 197 210 220 225 230 231 237 220 230 242 249 237 230 230 237 234
113 109 106 105 102 99 97 95 90 89 88 85 84 79 74 87 119 116 111 110 109 121 130 137 145 178 198 214 217 221 223 226 221 244 244 251 245 232 230 229 233 237 241
95 98 101 100 97 96 93 89 94 88 86 84 80 78 75 74 81 93 111 116 116 115 105 116 112 101 228 229 238 234 235 246 239 248 248 234 229 231 232 229 236 244 246
91 92 94 93 91 90 86 85 87 87 79 69 67 60 67 74 85 107 114 134 123 113 121 137 145 155 223 244 240 240 241 249 244 244 240 236 240 238 242 247 246 249 248
86 82 83 84 82 80 81 80 79 78 74 70 67 63 58 59 69 101 117 128 127 150 158 188 196 202 210 236 239 245 251 250 245 257 260 255 251 250 247 245 245 246 245
85 83 81 82 84 81 77 73 70 67 66 63 57 58 55 63 72 70 76 88 101 106 120 155 201 229 237 238 239 237 234 254 255 260 264 265 266 259 253 253 252 248 246
71 74 73 75 75 69 64 61 58 52 47 41 35 29 25 24 33 37 40 41 35 27 9 340 311 295 282 277 274 264 249 242 250 257 259 261 261 262 260 260 259 257 253
59 60 59 57 53 49 45 37 30 23 17 10 2 356 353 352 354 356 354 356 358 359 356 345 335 320 306 293 281 268 263 261 264 261 256 252 254 259 262 263 264 262 257
36 36 37 37 35 29 17 7 359 349 342 335 329 325 322 320 318 317 316 316 317 319 319 320 323 319 301 296 285 278 274 267 263 257 259 256 255 254 254 256 259 261 259
9 8 7 5 1 357 350 345 336 328 323 318 313 308 304 301 300 299 297 296 294 292 294 295 295 295 292 289 283 275 271 269 266 264 259 260 258 259 257 258 256 256 258
348 345 343 340 335 331 325 321 318 315 312 307 303 299 297 294 290 287 287 291 288 288 283 282 285 286 284 284 282 276 270 263 261 263 265 263 263 263 261 259 258 257 254
340 335 330 323 318 316 314 312 310 307 304 301 296 293 291 287 285 282 283 284 285 282 278 279 279 278 277 276 274 271 269 267 265 265 264 260 259 262 264 263 265 263 262
Height
1425 1429 1432 1436 1441 1448 1452 1455 1463 1469 1472 1476 1480 1482 1487 1490 1494 1498 1501 1504 1507 1510 1514 1517 1520 1523 1526 1530 1532 1534 1535 1538 1540 1542 1544 1546 1547 1550 1552 1554 1557 1558 1559
1424 1427 1428 1432 1437 1443 1448 1452 1455 1460 1465 1469 1471 1476 1481 1485 1490 1493 1495 1497 1502 1504 1508 1511 1515 1518 1519 1522 1525 1527 1529 1531 1534 1536 1539 1541 1541 1544 1547 1549 1552 1554 1556
1421 1423 1426 1431 1435 1438 1443 1449 1452 1454 1458 1462 1464 1468 1475 1480 1484 1488 1490 1492 1495 1498 1502 1506 1509 1511 1513 1515 1517 1520 1522 1524 1526 1529 1530 1533 1537 1538 1540 1542 1545 1548 1549
1420 1419 1422 1428 1434 1434 1437 1443 1444 1447 1450 1456 1456 1461 1466 1471 1476 1480 1483 1486 1489 1492 1495 1498 1501 1504 1506 1508 1510 1513 1516 1518 1521 1523 1523 1525 1528 1530 1534 1536 1538 1542 1545
1411 1414 1417 1423 1429 1431 1436 1436 1438 1440 1445 1449 1454 1457 1458 1461 1468 1470 1473 1476 1478 1482 1487 1490 1493 1496 1500 1504 1505 1507 1508 1510 1512 1516 1518 1519 1521 1522 1524 1529 1534 1537 1539
1409 1412 1414 1420 1421 1426 1427 1430 1433 1436 1439 1442 1446 1452 1453 1458 1459 1461 1463 1467 1470 1472 1476 1480 1482 1486 1492 1495 1497 1501 1503 1503 1504 1506 1509 1512 1514 1517 1519 1522 1526 1530 1532
1406 1408 1412 1415 1416 1419 1423 1426 1428 1432 1435 1435 1439 1442 1448 1452 1456 1458 1459 1463 1464 1465 1467 1471 1473 1475 1480 1484 1486 1492 1493 1497 1499 1501 1503 1505 1507 1511 1516 1516 1518 1522 1524
1406 1410 1410 1412 1415 1417 1419 1421 1424 1426 1429 1432 1434 1436 1442 1444 1453 1451 1455 1457 1457 1455 1460 1462 1463 1466 1470 1475 1477 1480 1483 1487 1490 1494 1496 1501 1505 1507 1510 1513 1516 1519 1521
1403 1406 1408 1410 1414 1414 1416 1417 1418 1421 1424 1427 1431 1434 1437 1438 1445 1445 1449 1453 1451 1450 1457 1457 1457 1459 1462 1467 1467 1471 1475 1477 1482 1486 1492 1496 1499 1501 1503 1506 1508 1514 1516
1402 1404 1406 1408 1410 1411 1412 1413 1414 1417 1421 1423 1426 1428 1431 1433 1436 1439 1445 1445 1440 1445 1450 1454 1454 1455 1456 1459 1463 1465 1468 1470 1476 1482 1486 1490 1495 1496 1497 1500 1504 1508 1513
1401 1402 1406 1407 1407 1408 1410 1412 1414 1415 1417 1420 1421 1423 1428 1429 1432 1432 1433 1438 1438 1434 1444 1448 1449 1451 1450 1454 1457 1458 1460 1465 1469 1475 1480 1485 1489 1492 1493 1496 1502 1503 1503
1404 1404 1406 1407 1407 1407 1409 1410 1412 1414 1417 1420 1422 1421 1425 1425 1427 1429 1429 1430 1434 1429 1436 1440 1444 1447 1448 1449 1451 1455 1456 1460 1465 1469 1473 1476 1482 1485 1487 1491 1496 1499 1499
1406 1406 1408 1409 1410 1410 1410 1413 1414 1416 1418 1421 1422 1419 1421 1424 1426 1426 1423 1425 1429 1428 1428 1434 1439 1442 1444 1445 1446 1451 1450 1456 1461 1465 1468 1469 1474 1479 1481 1485 1488 1491 1493
1406 1408 1410 1412 1413 1414 1414 1416 1417 1418 1420 1421 1420 1421 1422 1424 1425 1423 1422 1422 1425 1427 1425 1429 1433 1438 1440 1438 1444 1446 1442 1452 1458 1460 1465 1469 1471 1472 1474 1478 1479 1483 1487
1409 1410 1412 1414 1415 1416 1418 1419 1420 1421 1421 1422 1421 1422 1422 1423 1424 1425 1423 1423 1423 1423 1424 1425 1431 1435 1437 1435 1437 1438 1442 1452 1452 1456 1459 1463 1466 1468 1469 1473 1473 1479 1481
1412 1413 1415 1416 1417 1419 1421 1421 1423 1424 1425 1424 1423 1423 1422 1422 1422 1422 1423 1423 1422 1423 1425 1427 1430 1433 1435 1437 1436 1440 1444 1447 1448 1452 1455 1457 1458 1463 1465 1467 1469 1473 1476
1415 1416 1417 1418 1420 1421 1422 1422 1423 1425 1425 1424 1422 1421 1421 1421 1421 1420 1421 1421 1423 1425 1424 1428 1430 1433 1436 1439 1438 1441 1443 1442 1442 1448 1451 1450 1453 1458 1461 1462 1464 1470 1472
1419 1419 1419 1420 1421 1422 1423 1423 1424 1424 1424 1423 1422 1422 1422 1422 1421 1422 1423 1423 1423 1424 1425 1429 1432 1433 1434 1434 1436 1437 1440 1440 1440 1447 1445 1446 1450 1451 1455 1457 1462 1463 1469
1423 1422 1423 1423 1424 1425 1426 1426 1425 1425 1424 1423 1424 1424 1423 1424 1423 1424 1425 1424 1425 1427 1429 1431 1432 1433 1435 1437 1436 1435 1435 1435 1438 1442 1441 1442 1444 1448 1446 1455 1456 1459 1462
1426 1427 1428 1427 1428 1428 1428 1428 1428 1427 1427 1427 1428 1427 1427 1427 1426 1425 1425 1425 1426 1427 1428 1429 1430 1430 1430 1430 1430 1430 1430 1430 1432 1435 1437 1437 1439 1442 1446 1448 1449 1452 1453
1431 1431 1431 1431 1431 1430 1430 1430 1430 1430 1429 1428 1429 1428 1427 1426 1426 1425 1424 1425 1425 1425 1425 1425 1425 1424 1425 1424 1424 1424 1425 1426 1429 1431 1431 1432 1436 1439 1441 1442 1444 1446 1446
1434 1434 1433 1432 1432 1431 1431 1430 1430 1430 1430 1430 1430 1429 1427 1426 1426 1425 1424 1424 1424 1424 1424 1423 1422 1422 1421 1421 1421 1422 1423 1424 1426 1426 1428 1430 1432 1434 1435 1436 1438 1439 1439
1435 1434 1433 1432 1431 1431 1431 1430 1430 1430 1430 1430 1429 1428 1427 1426 1426 1425 1424 1424 1423 1423 1422 1421 1421 1420 1420 1420 1420 1421 1422 1423 1424 1425 1426 1426 1427 1429 1430 1431 1432 1433 1433
1435 1434 1433 1432 1431 1431 1430 1430 1430 1430 1429 1428 1427 1426 1425 1425 1424 1423 1423 1422 1422 1421 1421 1420 1420 1419 1419 1419 1419 1419 1420 1420 1420 1421 1422 1423 1424 1425 1425 1425 1425 1426 1427
1435 1434 1433 1432 1431 1431 1430 1429 1428 1427 1427 1426 1425 1424 1423 1422 1422 1421 1420 1420 1419 1418 1418 1418 1417 1417 1416 1416 1416 1416 1417 1417 1417 1417 1417 1418 1419 1419 1420 1420 1420 1420 1421
1434 1433 1432 1431 1430 1429 1428 1426 1426 1425 1424 1423 1422 1421 1420 1419 1419 1418 1417 1417 1416 1416 1415 1415 1414 1413 1413 1412 1412 1412 1412 1412 1412 1413 1412 1413 1413 1413 1413 1414 1414 1415 1415